Location: Hertford
(51.8000°N, 0.0667°W)
Time: 00:59:19
(UTC+00:00)

NOSS 2-2 (E) - Visible Passes

Search period start: 24 January 2021 00:00
Search period end: 03 February 2021 00:00
Orbit: 465 x 1741 km, 63.3° (Epoch: 16 January)

Date Brightness Start Highest point End Pass type
(mag) Time Alt. Az. Time Alt. Az. Time Alt. Az.
24 Jan 5.3 17:07:10 10° NW 17:10:38 22° N 17:14:54 10° ENE visible
24 Jan 4.6 18:57:36 10° NW 19:02:22 45° NE 19:03:04 43° NE visible
24 Jan 5.9 20:47:53 10° NW 20:50:26 30° WNW 20:50:26 30° WNW visible
25 Jan 4.9 18:12:05 10° NW 18:16:30 35° NNE 18:19:15 23° ENE visible
25 Jan 4.6 20:02:16 10° NW 20:06:39 64° WNW 20:06:39 64° WNW visible
25 Jan 7.1 21:53:34 10° WNW 21:54:04 12° WNW 21:54:04 12° WNW visible
26 Jan 5.1 17:26:32 10° NW 17:30:33 28° NNE 17:35:34 10° E visible
26 Jan 4.2 19:16:43 10° NW 19:21:53 74° NE 19:22:58 60° ESE visible
26 Jan 6.2 21:07:26 10° WNW 21:10:23 26° W 21:10:23 26° W visible
27 Jan 4.4 18:31:13 10° NW 18:36:07 53° NE 18:39:26 27° ESE visible
27 Jan 5.3 20:21:36 10° NW 20:26:51 46° SW 20:26:51 46° SW visible
28 Jan 4.7 17:45:42 10° NW 17:50:18 40° NNE 17:56:04 11° E visible
28 Jan 4.7 19:35:56 10° NW 19:41:16 67° SW 19:43:31 43° SSE visible
28 Jan 6.8 21:27:43 10° WNW 21:30:57 17° WSW 21:30:57 17° WSW visible
29 Jan 4.3 18:50:20 10° NW 18:55:36 87° NE 19:00:27 22° SE visible
29 Jan 6.3 20:41:19 10° WNW 20:46:09 26° WSW 20:47:55 24° SW visible
30 Jan 4.3 18:04:48 10° NW 18:09:51 63° NE 18:16:52 10° ESE visible
30 Jan 5.7 19:55:21 10° WNW 20:00:34 38° SW 20:05:17 19° S visible
31 Jan 4.6 17:19:17 10° NW 17:24:04 46° NE 17:30:33 10° ESE visible
31 Jan 5.1 19:09:35 10° NW 19:14:57 56° SW 19:22:20 10° SSE visible
31 Jan 7.1 21:02:11 10° W 21:05:10 14° WSW 21:08:31 10° SW visible
01 Feb 4.5 18:23:58 10° NW 18:29:17 79° SW 18:36:43 10° SE visible
01 Feb 6.7 20:15:18 10° WNW 20:19:44 21° WSW 20:25:10 10° SSW visible
02 Feb 4.3 17:38:24 10° NW 17:43:34 75° NE 17:50:47 10° SE visible
02 Feb 6.2 19:29:08 10° WNW 19:34:12 31° WSW 19:40:47 10° S visible
